Location: ?????
(37.7324°N, 23.9257°E)
Time: 07:54:04
(UTC+00:00)

Cosmos 1515 Rocket - Pass Details

Date: 29 November 2020
Orbit: 606 x 630 km, 82.5° (Epoch: 17 January)

Event Time Altitude Azimuth Distance (km) Brightness Sun altitude
Exits shadow 04:09:37 - 344° (NNW) 2,617 6.5 -13.6°
Reaches altitude 10° 04:11:08 10° 340° (NNW) 2,017 5.8 -13.3°
Maximum altitude 04:15:25 46° 267° (W) 847 3.8 -12.5°
Drops below altitude 10° 04:19:40 10° 195° (SSW) 2,001 6.2 -11.7°
Sets 04:21:56 0° 189° (S) 2,901 7.1 -11.2°
